Location: Boiro
(42.6475°N, 8.8834°W)
Time: 21:10:45
(UTC+01:00)

Vanguard 3 - Pass Details

Date: 05 December 2021
Orbit: 508 x 3260 km, 33.3° (Epoch: 17 January)

Event Time Altitude Azimuth Distance (km) Brightness Sun altitude
Rises 08:22:44 0° 269° (W) 7,227 11.4 -5.3°
Reaches altitude 10° 08:27:53 10° 266° (W) 6,133 11.1 -4.4°
Maximum altitude 08:45:50 56° 196° (SSW) 2,887 10.1 -1.5°
Drops below altitude 10° 08:57:23 10° 122° (ESE) 4,102 13.2 0.3°
Sets 09:00:06 0° 117° (ESE) 4,782 14.3 0.7°
